Location: Asheville, NC
(35.6000°N, 82.5500°W)
Time: 06:22:39
(UTC-05:00)

STARS - Visible Passes

Search period start: 20 January 2018 00:00
Search period end: 30 January 2018 00:00
Orbit: 625 x 641 km, 98.3° (Epoch: 19 January)

Date Brightness Start Highest point End Pass type
(mag) Time Alt. Az. Time Alt. Az. Time Alt. Az.
20 Jan ? 04:51:48 10° ESE 04:54:48 19° ENE 04:56:54 14° NNE visible
20 Jan ? 06:26:56 10° SSW 06:30:51 33° W 06:34:21 12° NW visible
20 Jan ? 18:18:26 10° NNE 18:22:45 52° E 18:27:03 10° S visible
20 Jan ? 19:56:38 10° NW 19:58:35 13° WNW 20:00:33 10° W visible
21 Jan ? 05:12:09 10° SE 05:15:58 31° ENE 05:18:37 17° NNE visible
21 Jan ? 06:49:12 10° SW 06:52:18 19° W 06:55:25 10° NW visible
21 Jan ? 18:39:40 10° NNE 18:44:06 88° W 18:48:31 10° SSW visible
22 Jan ? 05:32:58 10° SSE 05:37:12 54° ENE 05:40:21 17° N visible
22 Jan ? 19:01:07 10° N 19:05:23 49° WNW 19:09:38 10° SSW visible
23 Jan ? 05:54:09 10° SSE 05:58:30 83° W 06:02:06 15° NNW visible
23 Jan ? 19:22:49 10° NNW 19:26:36 28° WNW 19:30:23 10° SW visible
24 Jan ? 04:41:44 10° E 04:43:57 14° ENE 04:46:11 10° NE visible
24 Jan ? 06:15:41 10° S 06:19:51 45° W 06:23:52 11° NNW visible
24 Jan ? 19:44:53 10° NNW 19:47:45 17° WNW 19:50:38 10° WSW visible
25 Jan ? 05:01:39 10° ESE 05:05:05 23° ENE 05:08:12 12° NNE visible
25 Jan ? 06:37:38 10° SSW 06:41:16 26° W 06:44:55 10° NW visible
25 Jan ? 18:28:44 10° NNE 18:33:09 68° ESE 18:37:32 10° S visible
26 Jan ? 05:22:14 10° SE 05:26:16 39° ENE 05:30:00 12° N visible
26 Jan ? 07:00:15 10° SW 07:02:44 15° W 07:05:14 10° WNW visible
26 Jan ? 18:50:03 10° N 18:54:27 68° WNW 18:58:51 10° SSW visible
27 Jan ? 05:43:13 10° SSE 05:47:32 71° ENE 05:51:49 10° N visible
27 Jan ? 19:11:37 10° N 19:15:42 38° WNW 19:19:48 10° SW visible
28 Jan ? 04:32:34 10° ENE 04:33:07 10° ENE 04:33:40 10° ENE visible
28 Jan ? 06:04:33 10° S 06:08:51 64° WSW 06:13:11 10° NNW visible
28 Jan ? 19:33:27 10° NNW 19:36:54 23° WNW 19:40:21 10° WSW visible
29 Jan ? 04:51:20 10° ESE 04:54:13 18° ENE 04:57:06 10° NNE visible
29 Jan ? 06:26:15 10° SSW 06:30:14 35° W 06:34:15 10° NNW visible
29 Jan ? 18:17:52 10° NNE 18:22:10 48° E 18:26:26 10° S visible
29 Jan ? 19:55:49 10° NW 19:58:02 14° WNW 20:00:14 10° W visible
